Location: Eaton
(41.3139°N, 82.0207°W)
Time: 00:01:19
(UTC+00:00)

ALOS - Pass Details

Date: 17 June 2021
Orbit: 683 x 684 km, 97.9° (Epoch: 02 August)

Event Time Altitude Azimuth Distance (km) Brightness Sun altitude
Rises 08:58:30 0° 21° (NNE) 3,057 6.9 -9.1°
Reaches altitude 10° 09:00:56 10° 31° (NNE) 2,137 6.2 -8.8°
Maximum altitude 09:05:12 35° 97° (E) 1,112 3.8 -8.2°
Drops below altitude 10° 09:09:26 10° 163° (SSE) 2,121 4.6 -7.6°
Sets 09:11:50 0° 172° (S) 3,032 5.3 -7.3°
